Weather History for Houghton, MI

Change the Weather History Date:

Tuesday, April 23, 2013

  Actual Average Record
Temperature  
Mean Temperature 30 °F -  
Max Temperature 34 °F 51 °F 81 °F (1990)
Min Temperature 19 °F 34 °F 19 °F (2013)
Degree Days  
Heating Degree Days 36    
Moisture  
Dew Point 28 °F    
Average Humidity 89    
Maximum Humidity 100    
Minimum Humidity 70    
Precipitation  
Precipitation 0.37 in - - ()
Sea Level Pressure  
Sea Level Pressure 30.00 in    
Wind  
Wind Speed 9 mph (North)    
Max Wind Speed 22 mph    
Max Gust Speed 30 mph    
Visibility 4 miles    
Events Fog , Snow    
Averages and records for this station are not official NWS values.
T = Trace of Precipitation, MM = Missing Value Source: NWS Daily Summary

Daily Weather History Graph

Daily Weather History Graph

Search for Another Location

Airport:

Trip Planner

Search our weather history database for the weather conditions in past years. The results will help you decide how hot, cold, wet, or windy it might be!

Date:

Astronomy

Apr. 23, 2013 Rise Set
Actual Time 6:50 AM EDT 8:54 PM EDT
Civil Twilight 6:17 AM EDT 9:27 PM EDT
Nautical Twilight 5:37 AM EDT 10:08 PM EDT
Astronomical Twilight 4:52 AM EDT 10:54 PM EDT
Moon 6:42 PM EDT (4/23) 5:28 AM EDT (4/23)
Length of Visible Light 15h 09m
Length of Day
14h 03m
Waxing Gibbous, 94% of the Moon is Illuminated
Apr 23
Waxing Gibbous
Apr 25
Full
May 2
Last Quarter
May 9
New
May 18
First Quarter

Hourly Weather History & Observations

Time (EDT) Temp. Windchill Dew Point Humidity Pressure Visibility Wind Dir Wind Speed Gust Speed Precip Events Conditions
12:02 AM 30.2 °F 24.3 °F 30.2 °F 100% 30.13 in 0.8 mi East 5.8 mph - 0.01 in Snow Light Snow
12:10 AM 30.2 °F 25.4 °F 30.2 °F 100% 30.13 in 0.5 mi East 4.6 mph - 0.01 in Fog , Snow Light Snow
12:38 AM 30.2 °F 24.3 °F 30.2 °F 100% 30.13 in 1.2 mi East 5.8 mph - 0.02 in Snow Light Snow
12:53 AM 30.9 °F 25.2 °F 30.0 °F 96% 30.17 in 1.5 mi ENE 5.8 mph - 0.03 in Snow Light Snow
1:53 AM 32.0 °F 27.5 °F 30.0 °F 92% 30.13 in 1.2 mi ENE 4.6 mph - 0.04 in Snow Light Snow
2:16 AM 30.2 °F 24.3 °F 30.2 °F 100% 30.08 in 1.0 mi NE 5.8 mph - 0.02 in Snow Light Snow
2:26 AM 30.2 °F 24.3 °F 30.2 °F 100% 30.07 in 0.8 mi ENE 5.8 mph - 0.03 in Snow Light Snow
2:41 AM 30.2 °F 26.7 °F 30.2 °F 100% 30.06 in 0.8 mi ENE 3.5 mph - 0.05 in Snow Light Snow
2:53 AM 30.9 °F - 30.0 °F 96% 30.09 in 0.5 mi Calm Calm - 0.07 in Fog , Snow Snow
3:03 AM 30.2 °F 26.7 °F 30.2 °F 100% 30.05 in 1.0 mi NE 3.5 mph - 0.01 in Snow Light Snow
3:17 AM 32.0 °F 28.7 °F 30.2 °F 93% 30.04 in 0.8 mi NE 3.5 mph - 0.03 in Snow Light Snow
3:25 AM 32.0 °F - 30.2 °F 93% 30.04 in 1.0 mi Calm Calm - 0.04 in Snow Light Snow
3:33 AM 32.0 °F 28.7 °F 30.2 °F 93% 30.03 in 0.8 mi NE 3.5 mph - 0.05 in Snow Light Snow
3:53 AM 32.0 °F 27.5 °F 30.2 °F 93% 30.02 in 1.0 mi NNE 4.6 mph - N/A Snow Light Snow
4:08 AM 32.0 °F 26.4 °F 30.2 °F 93% 30.00 in 0.8 mi NE 5.8 mph - 0.01 in Snow Light Snow
4:53 AM 32.0 °F 23.6 °F 30.0 °F 92% 30.02 in 0.8 mi NE 10.4 mph - 0.06 in Snow Light Snow
5:00 AM 32.0 °F 24.8 °F 30.2 °F 93% 29.98 in 1.0 mi NE 8.1 mph - 0.01 in Snow Light Snow
5:09 AM 32.0 °F 24.8 °F 30.2 °F 93% 29.98 in 0.8 mi NNE 8.1 mph - 0.01 in Snow Light Snow
5:53 AM 32.0 °F 24.8 °F 30.0 °F 92% 29.99 in 0.5 mi North 8.1 mph - 0.07 in Fog , Snow Snow
6:53 AM 32.0 °F 23.0 °F 30.0 °F 92% 29.98 in 0.5 mi North 11.5 mph - 0.07 in Fog , Snow Snow
7:31 AM 32.0 °F 23.6 °F 30.2 °F 93% 29.93 in 0.8 mi North 10.4 mph - 0.02 in Snow Light Snow
7:34 AM 32.0 °F 22.1 °F 30.2 °F 93% 29.93 in 1.0 mi North 13.8 mph - 0.02 in Snow Light Snow
7:45 AM 32.0 °F 21.2 °F 28.4 °F 87% 29.92 in 1.2 mi North 16.1 mph - 0.02 in Snow Light Snow
7:53 AM 32.0 °F 20.8 °F 28.9 °F 88% 29.95 in 1.2 mi North 17.3 mph - 0.02 in Snow Light Snow
8:23 AM 32.0 °F 22.1 °F 28.4 °F 87% 29.91 in 1.0 mi North 13.8 mph 21.9 mph 0.00 in Snow Light Snow
8:39 AM 32.0 °F 21.6 °F 28.4 °F 87% 29.91 in 0.8 mi North 15.0 mph 24.2 mph 0.00 in Snow Light Snow
8:53 AM 32.0 °F 21.6 °F 28.9 °F 88% 29.96 in 0.8 mi North 15.0 mph - 0.00 in Snow Light Snow
9:53 AM 30.9 °F 18.7 °F 28.9 °F 92% 29.96 in 0.5 mi NNW 19.6 mph 29.9 mph 0.00 in Fog , Snow Light Snow
10:53 AM 32.0 °F 21.2 °F 28.9 °F 88% 29.96 in 0.5 mi NNW 16.1 mph 29.9 mph 0.01 in Fog , Snow Light Snow
11:34 AM 33.8 °F 21.9 °F 28.4 °F 81% 29.93 in 1.2 mi NNW 21.9 mph - 0.00 in Snow Light Snow
11:49 AM 32.0 °F 19.5 °F 28.4 °F 87% 29.93 in 2.0 mi NNW 21.9 mph - 0.00 in Snow Light Snow
11:53 AM 32.0 °F 20.5 °F 28.9 °F 88% 29.97 in 2.0 mi NNW 18.4 mph 27.6 mph 0.00 in Snow Light Snow
12:05 PM 32.0 °F 21.6 °F 28.4 °F 87% 29.93 in 4.0 mi North 15.0 mph 26.5 mph 0.00 in Snow Light Snow
12:17 PM 30.2 °F 17.4 °F 28.4 °F 93% 29.93 in 1.8 mi NNW 20.7 mph 26.5 mph 0.00 in Snow Light Snow
12:48 PM 32.0 °F 20.5 °F 28.4 °F 87% 29.94 in 0.8 mi NNW 18.4 mph 26.5 mph 0.00 in Snow Light Snow
12:53 PM 32.0 °F 20.5 °F 28.0 °F 85% 29.98 in 1.0 mi NNW 18.4 mph - 0.00 in Snow Light Snow
1:16 PM 30.2 °F 18.1 °F 28.4 °F 93% 29.95 in 3.0 mi NNW 18.4 mph 23.0 mph 0.00 in Snow Light Snow
1:53 PM 32.0 °F 20.1 °F 28.0 °F 85% 29.99 in 10.0 mi NNW 19.6 mph 26.5 mph 0.00 in   Overcast
2:19 PM 32.0 °F 21.6 °F 28.4 °F 87% 29.93 in 9.0 mi NNW 15.0 mph 27.6 mph 0.00 in   Overcast
2:53 PM 32.0 °F 20.8 °F 27.0 °F 82% 30.00 in 5.0 mi NNW 17.3 mph 27.6 mph 0.00 in   Overcast
3:24 PM 32.0 °F 20.8 °F 26.6 °F 80% 29.96 in 8.0 mi NW 17.3 mph - 0.00 in   Overcast
3:53 PM 32.0 °F 21.2 °F 27.0 °F 82% 30.00 in 4.0 mi NNW 16.1 mph 23.0 mph 0.00 in Snow Light Snow
4:29 PM 33.8 °F 24.3 °F 26.6 °F 75% 29.96 in 8.0 mi NW 13.8 mph 21.9 mph 0.00 in   Overcast
4:53 PM 34.0 °F 25.0 °F 26.1 °F 73% 30.01 in 10.0 mi NNW 12.7 mph - 0.00 in   Overcast
5:53 PM 34.0 °F 24.2 °F 27.0 °F 75% 30.01 in 10.0 mi WNW 15.0 mph - N/A   Overcast
6:02 PM 33.8 °F 23.5 °F 26.6 °F 75% 29.96 in 10.0 mi WNW 16.1 mph - N/A   Overcast
6:31 PM 33.8 °F 25.8 °F 26.6 °F 75% 29.95 in 10.0 mi WNW 10.4 mph - N/A   Overcast
6:53 PM 34.0 °F 25.5 °F 25.0 °F 70% 30.00 in 10.0 mi WNW 11.5 mph - N/A   Overcast
7:53 PM 33.1 °F 25.5 °F 26.1 °F 75% 30.00 in 10.0 mi West 9.2 mph - N/A   Clear
8:53 PM 28.9 °F 21.1 °F 23.0 °F 78% 30.00 in 10.0 mi West 8.1 mph - N/A   Clear
9:53 PM 25.0 °F 17.1 °F 19.9 °F 81% 30.01 in 10.0 mi West 6.9 mph - N/A   Clear
10:53 PM 25.0 °F 18.1 °F 21.9 °F 88% 30.01 in 10.0 mi NW 5.8 mph - N/A   Clear
11:53 PM 19.9 °F 11.1 °F 19.0 °F 96% 30.00 in 10.0 mi WNW 6.9 mph - N/A   Clear